Погода в Некрасове

Россия / Свердловская область     56°40′20″N   61°39′05″E
темп.,
°C
ветер,
м/с
пор.,
м/с
влажн.,
%
обл.,
%
осадки,
мм/ч
давл.,
гПа
погр.,
м
4 марта, чт
чт423:00−5юз4893100 0.1 998176
02:00−8юз369488 0.0 99798
05:00−9юз349393 0.0 99777
08:00−9юз469493 0.0 996140
11:00−5зюз599495 0.3 996548
14:00−4з6882100 0.4 9961034
17:00−5з498399 0.5 997645
20:00−10зюз498833 0.0 998158
5 марта, пт
пт523:00−12ююз479216 0.0 998139
02:00−10ююз61194100 0.1 995352
05:00−7ю71294100 1.9 993579
08:00−6юз6138698 0.3 993473
11:00−4зюз7138199 0.3 9941132
14:00−2зюз8137996 0.0 9961176
17:00−3зюз5118097 0.1 9981011
20:00−8зюз4108787 0.0 1000271
6 марта, сб
сб623:00−10з5118951 0.0 1003272
02:00−12з512910 0.0 1004276
05:00−14з612890 0.0 1007345
08:00−16з512890 0.0 1008295
11:00−10з612840 0.0 1008672
14:00−7з7117867 0.1 10081366
17:00−8з598383 0.1 10081050
20:00−12зюз3490100 0.0 100956
7 марта, вс
вс723:00−15з349493 0.0 101046
02:00−18зсз229766 0.0 100920
05:00−19зсз229634 0.0 100920
08:00−19з129433 0.0 100920
11:00−13з128855 0.0 1008222
14:00−10ююз2386100 0.1 1008459
17:00−10ю3492100 0.1 1008259
20:00−12ююз359684 0.3 1010133
8 марта, пн
пн823:00−16з349556 0.3 101270
02:00−19з349620 0.0 101261
05:00−22зюз349310 0.0 101335
08:00−21ююз349250 0.0 101273
11:00−16ю6118774 0.0 1010388
14:00−12ю71392100 0.2 1007674
17:00−9ю61190100 0.4 1005626
20:00−9ю61390100 0.0 1003440